User: anonymous   Login
Location: Beaurevoir
(49.9971°N, 3.3085°E)
Time: 16:14:33
(UTC+00:00)
Language:

Cosmos 1980 Rocket - Orbit

View from above orbital plane
View from above orbital plane
View from above satellite
View from above satellite

Ground track
Ground track

The orbit data is extracted from the following two-line orbital elements,

1 19650U 88102B   24206.68539812  .00000057  00000-0  53271-4 0  9990
2 19650  71.0016 319.1005 0014941 202.4363 157.6109 14.15988945842946
Epoch (UTC): 24 July 2024 16:26:58
Eccentricity: 0.0014941
inclination: 71.0016°
perigee height: 828 km
apogee height: 850 km
right ascension of ascending node: 319.1005°
argument of perigee: 202.4363°
revolutions per day: 14.15988945
mean anomaly at epoch: 157.6109°
orbit number at epoch: 84294

The dashed part of the orbit path shows where the satellite is in the earth's shadow,  

DLR